GTI9020 KPDX-KMIA

Flight info

Callsign GTI9020
Flight time N/A
Altitude 33000
Route WHAMY5 IMB KU84K PIH CHE GCK TUL FLAMM/N0502F350 GRANI DOWRY FROGZ5
Aircraft B77L/H-SDE1E2E3FGHIJ2J3J4J5M1RWXY/LB1D1

Departure

Time 2026-05-07 16:24
Airport Portland International Airport (KPDX)

Arrival

Time N/A
Airport Miami International Airport (KMIA)
Time Latitude Longitude Altitude Speed Heading
2026-05-07 14:59 45.57876 -122.60815 32 ft 0 kts 178°
2026-05-07 16:00 45.57879 -122.60815 32 ft 0 kts 178°
2026-05-07 16:00 45.57876 -122.60815 32 ft 0 kts 178°
2026-05-07 16:14 45.57891 -122.60816 31 ft 3 kts 178°
2026-05-07 16:14 45.57911 -122.60816 31 ft 3 kts 182°
2026-05-07 16:14 45.57932 -122.60815 32 ft 3 kts 182°
2026-05-07 16:15 45.57951 -122.60813 32 ft 2 kts 211°
2026-05-07 16:15 45.57958 -122.60803 32 ft 0 kts 271°
2026-05-07 16:15 45.57958 -122.60810 32 ft 5 kts 271°
2026-05-07 16:16 45.57972 -122.60890 32 ft 2 kts 295°
2026-05-07 16:16 45.57991 -122.60936 32 ft 15 kts 305°
2026-05-07 16:16 45.58078 -122.61063 32 ft 18 kts 315°
2026-05-07 16:16 45.58167 -122.61192 32 ft 18 kts 315°
2026-05-07 16:17 45.58249 -122.61308 32 ft 15 kts 316°
2026-05-07 16:17 45.58337 -122.61324 32 ft 14 kts 32°
2026-05-07 16:17 45.58408 -122.61228 32 ft 14 kts 45°
2026-05-07 16:17 45.58478 -122.61129 32 ft 14 kts 44°
2026-05-07 16:18 45.58555 -122.61018 32 ft 16 kts 45°
2026-05-07 16:18 45.58634 -122.60905 32 ft 16 kts 45°
2026-05-07 16:18 45.58714 -122.60794 32 ft 16 kts 44°
2026-05-07 16:18 45.58788 -122.60676 32 ft 16 kts 69°
2026-05-07 16:19 45.58761 -122.60526 31 ft 16 kts 117°
2026-05-07 16:19 45.58706 -122.60387 31 ft 16 kts 119°
2026-05-07 16:19 45.58651 -122.60247 32 ft 16 kts 119°
2026-05-07 16:19 45.58597 -122.60108 33 ft 16 kts 120°
2026-05-07 16:20 45.58542 -122.59968 32 ft 16 kts 119°
2026-05-07 16:20 45.58489 -122.59829 32 ft 16 kts 119°
2026-05-07 16:20 45.58434 -122.59689 32 ft 16 kts 119°
2026-05-07 16:20 45.58380 -122.59550 33 ft 16 kts 119°
2026-05-07 16:21 45.58325 -122.59411 33 ft 16 kts 119°
2026-05-07 16:21 45.58270 -122.59271 33 ft 16 kts 119°
2026-05-07 16:21 45.58216 -122.59132 33 ft 16 kts 119°
2026-05-07 16:21 45.58130 -122.58910 33 ft 30 kts 119°
2026-05-07 16:22 45.58061 -122.58737 31 ft 30 kts 119°
2026-05-07 16:22 45.57985 -122.58542 33 ft 11 kts 116°
2026-05-07 16:22 45.58009 -122.58446 33 ft 11 kts 32°
2026-05-07 16:22 45.58065 -122.58438 33 ft 8 kts 327°
2026-05-07 16:23 45.58112 -122.58540 33 ft 30 kts 300°
2026-05-07 16:23 45.58461 -122.59431 33 ft 122 kts 299°
2026-05-07 16:23 45.58971 -122.60735 34 ft 176 kts 299°
2026-05-07 16:23 45.59595 -122.62313 442 ft 182 kts 300°
2026-05-07 16:24 45.60024 -122.63349 888 ft 182 kts 301°
2026-05-07 16:24 45.60719 -122.64919 1344 ft 194 kts 303°
2026-05-07 16:24 45.61495 -122.66634 1569 ft 217 kts 303°
2026-05-07 16:24 45.62315 -122.68572 1795 ft 237 kts 300°
2026-05-07 16:25 45.63151 -122.70656 2337 ft 246 kts 300°
2026-05-07 16:25 45.64012 -122.72795 2968 ft 251 kts 300°
2026-05-07 16:25 45.64882 -122.74960 3629 ft 252 kts 300°
2026-05-07 16:25 45.65754 -122.77120 4306 ft 255 kts 300°
2026-05-07 16:26 45.66640 -122.79308 5013 ft 254 kts 298°
2026-05-07 16:26 45.67189 -122.81692 5517 ft 258 kts 269°
2026-05-07 16:26 45.66825 -122.84201 6064 ft 260 kts 253°
2026-05-07 16:26 45.66274 -122.86687 6639 ft 264 kts 254°
2026-05-07 16:27 45.65718 -122.89190 7282 ft 264 kts 249°
2026-05-07 16:27 45.64631 -122.91332 7711 ft 276 kts 218°
2026-05-07 16:27 45.62861 -122.92427 8272 ft 284 kts 188°
2026-05-07 16:27 45.60892 -122.92214 8823 ft 288 kts 165°
2026-05-07 16:28 45.58951 -122.91384 9267 ft 295 kts 165°
2026-05-07 16:28 45.56973 -122.90539 9839 ft 298 kts 165°
2026-05-07 16:28 45.55033 -122.89509 10378 ft 301 kts 148°
2026-05-07 16:28 45.53546 -122.87383 10740 ft 312 kts 119°
2026-05-07 16:29 45.52591 -122.84521 10884 ft 329 kts 113°
2026-05-07 16:29 45.51647 -122.81437 11067 ft 350 kts 113°
2026-05-07 16:29 45.50646 -122.78152 11237 ft 372 kts 113°
2026-05-07 16:29 45.49584 -122.74671 11465 ft 391 kts 113°
2026-05-07 16:30 45.48484 -122.71076 11956 ft 402 kts 113°
2026-05-07 16:30 45.47348 -122.67387 12577 ft 410 kts 114°
2026-05-07 16:30 45.46189 -122.63648 13295 ft 415 kts 113°
2026-05-07 16:30 45.45013 -122.59874 14043 ft 419 kts 113°
2026-05-07 16:31 45.43820 -122.56048 14733 ft 424 kts 113°
2026-05-07 16:31 45.42625 -122.52229 15383 ft 430 kts 113°
2026-05-07 16:31 45.41398 -122.48313 16027 ft 436 kts 113°
2026-05-07 16:31 45.40155 -122.44353 16661 ft 441 kts 113°
2026-05-07 16:32 45.38895 -122.40346 17273 ft 446 kts 113°
2026-05-07 16:32 45.37616 -122.36287 17873 ft 451 kts 113°
2026-05-07 16:32 45.36325 -122.32184 18441 ft 457 kts 113°
2026-05-07 16:32 45.35016 -122.28038 19018 ft 461 kts 113°
2026-05-07 16:33 45.33696 -122.23866 19613 ft 465 kts 114°
2026-05-07 16:33 45.32359 -122.19647 20195 ft 469 kts 114°
2026-05-07 16:33 45.31011 -122.15403 20751 ft 473 kts 114°
2026-05-07 16:33 45.29652 -122.11121 21265 ft 478 kts 114°
2026-05-07 16:34 45.28280 -122.06804 21790 ft 482 kts 114°
2026-05-07 16:34 45.26893 -122.02457 22296 ft 485 kts 114°
2026-05-07 16:34 45.25495 -121.98074 22807 ft 489 kts 113°
2026-05-07 16:34 45.24184 -121.93597 23264 ft 493 kts 110°
2026-05-07 16:35 45.22986 -121.89022 23744 ft 496 kts 108°
2026-05-07 16:35 45.21838 -121.84397 24248 ft 499 kts 108°
2026-05-07 16:35 45.20694 -121.79735 24680 ft 503 kts 108°
2026-05-07 16:35 45.19548 -121.75099 25103 ft 507 kts 108°
2026-05-07 16:36 45.18348 -121.70318 25576 ft 510 kts 108°
2026-05-07 16:36 45.17156 -121.65638 26037 ft 512 kts 109°
2026-05-07 16:36 45.15935 -121.60894 26488 ft 515 kts 109°
2026-05-07 16:36 45.14694 -121.56109 26914 ft 517 kts 109°
2026-05-07 16:37 45.13447 -121.51318 27327 ft 521 kts 109°
2026-05-07 16:37 45.12189 -121.46493 27698 ft 524 kts 109°
2026-05-07 16:37 45.10920 -121.41639 28089 ft 527 kts 109°
2026-05-07 16:37 45.09641 -121.36755 28473 ft 529 kts 109°
2026-05-07 16:38 45.08360 -121.31865 28866 ft 532 kts 109°
2026-05-07 16:38 45.07069 -121.26948 29222 ft 534 kts 109°
2026-05-07 16:38 45.05773 -121.22016 29537 ft 536 kts 109°
2026-05-07 16:38 45.04470 -121.17065 29868 ft 539 kts 109°
2026-05-07 16:39 45.03158 -121.12090 30195 ft 540 kts 109°
2026-05-07 16:39 45.01839 -121.07102 30499 ft 542 kts 109°
2026-05-07 16:39 45.00510 -121.02099 30775 ft 544 kts 109°
2026-05-07 16:39 44.99174 -120.97084 31052 ft 546 kts 109°
2026-05-07 16:40 44.97837 -120.92067 31349 ft 546 kts 109°
2026-05-07 16:40 44.96515 -120.87110 31709 ft 545 kts 109°
2026-05-07 16:40 44.95164 -120.82056 32098 ft 543 kts 109°
2026-05-07 16:40 44.93848 -120.77138 32420 ft 542 kts 109°
2026-05-07 16:41 44.92509 -120.72155 32673 ft 543 kts 109°
2026-05-07 16:41 44.91166 -120.67168 32935 ft 543 kts 110°
2026-05-07 16:41 44.89820 -120.62180 33100 ft 545 kts 109°
2026-05-07 16:42 44.87123 -120.52194 33129 ft 544 kts 109°
2026-05-07 16:42 44.84434 -120.42296 33138 ft 539 kts 110°
2026-05-07 16:43 44.81742 -120.32441 33140 ft 538 kts 110°
2026-05-07 16:43 44.79048 -120.22600 33134 ft 539 kts 110°
2026-05-07 16:44 44.76345 -120.12756 33143 ft 539 kts 110°
2026-05-07 16:44 44.73628 -120.02916 33151 ft 540 kts 110°
2026-05-07 16:45 44.70900 -119.93075 33147 ft 540 kts 110°
2026-05-07 16:45 44.68161 -119.83229 33142 ft 541 kts 110°
2026-05-07 16:46 44.65411 -119.73381 33136 ft 542 kts 110°
2026-05-07 16:46 44.63177 -119.63398 33147 ft 538 kts 101°
2026-05-07 16:47 44.61700 -119.53107 33132 ft 538 kts 98°
2026-05-07 16:47 44.60268 -119.42788 33125 ft 539 kts 99°
2026-05-07 16:48 44.58693 -119.32495 33140 ft 540 kts 100°
2026-05-07 16:48 44.57037 -119.22233 33135 ft 540 kts 101°
2026-05-07 16:49 44.55358 -119.11952 33142 ft 541 kts 101°
2026-05-07 16:49 44.53672 -119.01654 33132 ft 542 kts 101°
2026-05-07 16:50 44.51986 -118.91362 33139 ft 542 kts 101°
2026-05-07 16:50 44.50288 -118.81059 33128 ft 542 kts 101°
2026-05-07 16:51 44.48588 -118.70785 33121 ft 542 kts 101°
2026-05-07 16:51 44.46876 -118.60511 33125 ft 541 kts 101°
2026-05-07 16:52 44.45158 -118.50254 33114 ft 542 kts 101°
2026-05-07 16:52 44.43426 -118.39986 33118 ft 542 kts 101°
2026-05-07 16:53 44.41682 -118.29725 33117 ft 542 kts 101°
2026-05-07 16:53 44.39932 -118.19475 33118 ft 542 kts 101°
2026-05-07 16:54 44.38173 -118.09230 33116 ft 542 kts 101°
2026-05-07 16:54 44.36405 -117.98998 33103 ft 542 kts 101°
2026-05-07 16:55 44.34629 -117.88776 33114 ft 541 kts 101°
2026-05-07 16:55 44.32859 -117.78631 33115 ft 541 kts 101°
2026-05-07 16:56 44.31066 -117.68417 33103 ft 541 kts 101°
2026-05-07 16:56 44.28353 -117.53092 33098 ft 542 kts 101°
2026-05-07 16:57 44.26537 -117.42894 33097 ft 542 kts 101°
2026-05-07 16:57 44.24707 -117.32692 33097 ft 542 kts 101°
2026-05-07 16:58 44.22867 -117.22476 33099 ft 543 kts 101°
2026-05-07 16:58 44.21015 -117.12251 33094 ft 544 kts 101°
2026-05-07 16:59 44.19154 -117.02037 33083 ft 545 kts 101°
2026-05-07 16:59 44.17291 -116.91869 33083 ft 545 kts 101°
2026-05-07 17:00 44.15406 -116.81633 33092 ft 546 kts 101°
2026-05-07 17:00 44.13510 -116.71401 33083 ft 546 kts 102°
2026-05-07 17:01 44.11605 -116.61175 33079 ft 546 kts 102°
2026-05-07 17:01 44.09692 -116.50954 33085 ft 546 kts 102°
2026-05-07 17:02 44.07770 -116.40743 33092 ft 546 kts 102°
2026-05-07 17:02 44.05838 -116.30546 33087 ft 545 kts 102°
2026-05-07 17:03 44.03904 -116.20360 33089 ft 545 kts 102°
2026-05-07 17:03 44.01959 -116.10188 33100 ft 544 kts 102°
2026-05-07 17:04 43.99936 -116.00038 33092 ft 546 kts 105°
2026-05-07 17:04 43.97035 -115.90291 33099 ft 547 kts 112°
2026-05-07 17:05 43.93886 -115.80675 33113 ft 547 kts 112°
2026-05-07 17:05 43.90761 -115.71045 33100 ft 547 kts 112°
2026-05-07 17:06 43.87682 -115.61477 33115 ft 547 kts 111°
2026-05-07 17:06 43.84589 -115.51836 33108 ft 547 kts 111°
2026-05-07 17:07 43.81477 -115.42197 33114 ft 548 kts 112°
2026-05-07 17:07 43.78354 -115.32579 33120 ft 548 kts 112°
2026-05-07 17:08 43.75221 -115.22966 33113 ft 548 kts 112°
2026-05-07 17:08 43.72086 -115.13369 33132 ft 548 kts 112°
2026-05-07 17:09 43.68939 -115.03766 33116 ft 548 kts 112°
2026-05-07 17:09 43.65781 -114.94177 33118 ft 548 kts 112°
2026-05-07 17:10 43.63154 -114.86229 33124 ft 548 kts 112°
2026-05-07 17:10 43.59470 -114.75115 33106 ft 548 kts 112°
2026-05-07 17:11 43.56808 -114.67108 33105 ft 549 kts 112°
2026-05-07 17:11 43.53618 -114.57539 33105 ft 549 kts 112°
2026-05-07 17:12 43.50419 -114.47991 33102 ft 549 kts 112°
2026-05-07 17:12 43.47210 -114.38440 33093 ft 550 kts 112°
2026-05-07 17:13 43.43988 -114.28883 33096 ft 551 kts 112°
2026-05-07 17:13 43.40755 -114.19336 33110 ft 551 kts 112°
2026-05-07 17:14 43.37508 -114.09784 33095 ft 551 kts 112°
2026-05-07 17:14 43.34256 -114.00240 33099 ft 551 kts 112°
2026-05-07 17:15 43.31000 -113.90715 33098 ft 551 kts 112°
2026-05-07 17:15 43.27733 -113.81196 33095 ft 551 kts 112°
2026-05-07 17:16 43.24456 -113.71683 33092 ft 551 kts 112°
2026-05-07 17:16 43.21174 -113.62183 33086 ft 552 kts 112°
2026-05-07 17:17 43.17879 -113.52685 33084 ft 551 kts 112°
2026-05-07 17:17 43.14598 -113.43263 33083 ft 551 kts 112°
2026-05-07 17:18 43.11294 -113.33805 33082 ft 551 kts 112°
2026-05-07 17:18 43.07985 -113.24361 33076 ft 550 kts 112°
2026-05-07 17:19 43.04664 -113.14916 33076 ft 551 kts 112°
2026-05-07 17:19 43.01338 -113.05487 33070 ft 551 kts 113°
2026-05-07 17:20 42.98004 -112.96071 33073 ft 550 kts 113°
2026-05-07 17:20 42.94667 -112.86674 33066 ft 550 kts 113°
2026-05-07 17:21 42.91322 -112.77291 33065 ft 550 kts 113°
2026-05-07 17:21 42.87972 -112.67913 33069 ft 550 kts 113°
2026-05-07 17:22 42.84513 -112.58615 33066 ft 551 kts 116°
2026-05-07 17:22 42.80785 -112.49486 33071 ft 551 kts 117°
2026-05-07 17:23 42.77026 -112.40397 33052 ft 551 kts 116°
2026-05-07 17:23 42.73302 -112.31282 33048 ft 551 kts 116°
2026-05-07 17:24 42.69604 -112.22178 33059 ft 550 kts 116°
2026-05-07 17:24 42.65905 -112.13086 33074 ft 549 kts 116°
2026-05-07 17:25 42.62208 -112.04035 33073 ft 548 kts 116°
2026-05-07 17:25 42.58509 -111.95010 33095 ft 547 kts 116°
2026-05-07 17:26 42.54792 -111.85982 33098 ft 548 kts 116°
2026-05-07 17:26 42.51069 -111.76964 33113 ft 548 kts 116°
2026-05-07 17:27 42.47365 -111.68014 33109 ft 548 kts 116°
2026-05-07 17:27 42.43628 -111.59011 33126 ft 549 kts 116°
2026-05-07 17:28 42.39869 -111.49986 33113 ft 550 kts 116°
2026-05-07 17:28 42.36111 -111.40991 33130 ft 550 kts 117°
2026-05-07 17:29 42.32338 -111.31998 33132 ft 550 kts 117°
2026-05-07 17:29 42.28559 -111.23007 33129 ft 551 kts 116°
2026-05-07 17:30 42.24765 -111.13995 33121 ft 552 kts 117°
2026-05-07 17:30 42.20959 -111.05001 33129 ft 552 kts 117°
2026-05-07 17:31 42.17171 -110.96071 33132 ft 553 kts 117°
2026-05-07 17:31 42.13339 -110.87064 33142 ft 554 kts 117°
2026-05-07 17:32 42.09496 -110.78060 33162 ft 555 kts 117°
2026-05-07 17:32 42.05631 -110.69040 33175 ft 556 kts 117°
2026-05-07 17:33 42.01764 -110.60034 33170 ft 557 kts 117°
2026-05-07 17:33 41.97879 -110.51014 33177 ft 557 kts 117°
2026-05-07 17:34 41.93989 -110.42010 33167 ft 557 kts 117°
2026-05-07 17:34 41.90098 -110.33032 33173 ft 556 kts 117°
2026-05-07 17:35 41.86199 -110.24063 33173 ft 556 kts 117°
2026-05-07 17:35 41.82407 -110.15364 33166 ft 556 kts 117°
2026-05-07 17:36 41.78496 -110.06414 33175 ft 556 kts 117°
2026-05-07 17:36 41.74578 -109.97483 33174 ft 556 kts 117°
2026-05-07 17:37 41.70681 -109.88626 33181 ft 556 kts 117°
2026-05-07 17:37 41.66753 -109.79722 33178 ft 556 kts 117°
2026-05-07 17:38 41.62815 -109.70818 33180 ft 556 kts 117°
2026-05-07 17:38 41.58872 -109.61935 33176 ft 556 kts 117°
2026-05-07 17:39 41.54923 -109.53061 33163 ft 556 kts 118°
2026-05-07 17:39 41.50964 -109.44195 33153 ft 555 kts 118°
2026-05-07 17:40 41.47006 -109.35351 33152 ft 555 kts 118°
2026-05-07 17:40 41.43046 -109.26530 33152 ft 554 kts 118°
2026-05-07 17:41 41.39083 -109.17730 33172 ft 554 kts 118°
2026-05-07 17:41 41.35111 -109.08937 33144 ft 553 kts 118°
2026-05-07 17:42 41.31139 -109.00174 33147 ft 553 kts 118°
2026-05-07 17:42 41.27192 -108.91482 33147 ft 552 kts 119°
2026-05-07 17:43 41.23218 -108.82759 33141 ft 551 kts 119°
2026-05-07 17:43 41.19241 -108.74052 33145 ft 552 kts 119°
2026-05-07 17:44 41.15252 -108.65346 33150 ft 551 kts 119°
2026-05-07 17:44 41.11258 -108.56658 33171 ft 552 kts 119°
2026-05-07 17:45 41.07255 -108.47973 33171 ft 552 kts 119°
2026-05-07 17:45 41.03248 -108.39299 33180 ft 552 kts 119°
2026-05-07 17:46 40.99224 -108.30617 33191 ft 552 kts 120°
2026-05-07 17:46 40.95208 -108.21978 33195 ft 552 kts 120°
2026-05-07 17:47 40.91171 -108.13315 33197 ft 552 kts 120°
2026-05-07 17:47 40.87138 -108.04684 33200 ft 552 kts 120°
2026-05-07 17:48 40.83126 -107.96125 33200 ft 552 kts 120°
2026-05-07 17:48 40.79081 -107.87522 33207 ft 551 kts 120°
2026-05-07 17:49 40.75039 -107.78942 33203 ft 550 kts 120°
2026-05-07 17:49 40.70993 -107.70381 33213 ft 549 kts 120°
2026-05-07 17:50 40.66946 -107.61841 33212 ft 549 kts 121°
2026-05-07 17:50 40.62897 -107.53322 33214 ft 548 kts 121°
2026-05-07 17:51 40.58846 -107.44818 33221 ft 548 kts 121°
2026-05-07 17:51 40.54791 -107.36329 33222 ft 548 kts 121°
2026-05-07 17:52 40.50901 -107.27715 33226 ft 547 kts 114°
2026-05-07 17:52 40.47710 -107.18660 33243 ft 546 kts 112°
2026-05-07 17:53 40.44553 -107.09576 33243 ft 547 kts 113°
2026-05-07 17:53 40.41353 -107.00517 33239 ft 547 kts 113°
2026-05-07 17:54 40.38120 -106.91470 33223 ft 548 kts 114°
2026-05-07 17:54 40.34872 -106.82430 33213 ft 548 kts 114°
2026-05-07 17:55 40.31614 -106.73385 33207 ft 549 kts 114°
2026-05-07 17:55 40.28352 -106.64342 33206 ft 549 kts 114°
2026-05-07 17:56 40.25082 -106.55310 33205 ft 548 kts 114°
2026-05-07 17:56 40.22361 -106.47815 33211 ft 548 kts 115°
2026-05-07 17:57 40.19078 -106.38795 33225 ft 549 kts 115°
2026-05-07 17:57 40.15252 -106.28317 33216 ft 550 kts 115°
2026-05-07 17:58 40.12480 -106.20750 33227 ft 550 kts 115°
2026-05-07 17:58 40.09189 -106.11799 33225 ft 550 kts 115°
2026-05-07 17:59 40.05866 -106.02790 33247 ft 550 kts 115°
2026-05-07 17:59 40.02540 -105.93791 33259 ft 550 kts 115°
2026-05-07 18:00 39.99208 -105.84802 33262 ft 551 kts 115°
2026-05-07 18:00 39.95868 -105.75819 33269 ft 551 kts 115°
2026-05-07 18:01 39.92513 -105.66829 33237 ft 552 kts 115°
2026-05-07 18:01 39.89151 -105.57853 33232 ft 550 kts 115°
2026-05-07 18:02 39.84104 -105.44416 33199 ft 552 kts 114°
2026-05-07 18:03 39.80712 -105.35422 33173 ft 555 kts 114°
2026-05-07 18:03 39.77308 -105.26426 33132 ft 555 kts 115°
2026-05-07 18:04 39.73898 -105.17428 33113 ft 554 kts 115°
2026-05-07 18:04 39.70521 -105.08551 33097 ft 554 kts 115°
2026-05-07 18:05 39.67103 -104.99600 33090 ft 552 kts 116°
2026-05-07 18:05 39.63714 -104.90746 33092 ft 550 kts 116°
2026-05-07 18:06 39.60308 -104.81880 33087 ft 548 kts 116°
2026-05-07 18:06 39.56906 -104.73046 33098 ft 547 kts 116°
2026-05-07 18:07 39.53508 -104.64247 33097 ft 546 kts 117°
2026-05-07 18:07 39.50104 -104.55461 33108 ft 545 kts 117°
2026-05-07 18:08 39.46704 -104.46709 33116 ft 544 kts 117°
2026-05-07 18:08 39.43376 -104.38162 33130 ft 544 kts 117°
2026-05-07 18:09 39.39963 -104.29429 33126 ft 544 kts 117°
2026-05-07 18:09 39.36542 -104.20702 33125 ft 545 kts 117°
2026-05-07 18:10 39.33108 -104.11964 33112 ft 545 kts 117°
2026-05-07 18:10 39.29667 -104.03229 33096 ft 546 kts 118°
2026-05-07 18:11 39.26217 -103.94503 33100 ft 546 kts 118°
2026-05-07 18:11 39.22784 -103.85842 33084 ft 546 kts 118°
2026-05-07 18:12 39.19324 -103.77136 33077 ft 545 kts 118°
2026-05-07 18:12 39.15864 -103.68455 33077 ft 544 kts 118°
2026-05-07 18:13 39.12398 -103.59786 33072 ft 544 kts 118°
2026-05-07 18:13 39.08928 -103.51136 33073 ft 543 kts 119°
2026-05-07 18:14 39.05460 -103.42506 33073 ft 543 kts 119°
2026-05-07 18:14 39.01986 -103.33887 33074 ft 543 kts 119°
2026-05-07 18:15 38.98503 -103.25274 33070 ft 543 kts 119°
2026-05-07 18:15 38.95010 -103.16662 33063 ft 543 kts 119°
2026-05-07 18:16 38.91514 -103.08058 33065 ft 544 kts 119°
2026-05-07 18:16 38.88010 -102.99467 33065 ft 543 kts 120°
2026-05-07 18:17 38.84497 -102.90878 33064 ft 543 kts 120°
2026-05-07 18:17 38.80981 -102.82308 33061 ft 543 kts 120°
2026-05-07 18:18 38.77457 -102.73736 33052 ft 543 kts 120°
2026-05-07 18:18 38.73951 -102.65225 33057 ft 543 kts 120°
2026-05-07 18:19 38.70395 -102.56616 33057 ft 543 kts 120°
2026-05-07 18:19 38.66880 -102.48143 33055 ft 543 kts 120°
2026-05-07 18:20 38.63332 -102.39611 33053 ft 543 kts 120°
2026-05-07 18:20 38.59783 -102.31097 33054 ft 542 kts 120°
2026-05-07 18:21 38.56226 -102.22585 33055 ft 542 kts 120°
2026-05-07 18:21 38.52670 -102.14098 33039 ft 542 kts 120°
2026-05-07 18:22 38.49105 -102.05620 33048 ft 542 kts 121°
2026-05-07 18:22 38.45539 -101.97151 33047 ft 542 kts 121°
2026-05-07 18:23 38.41959 -101.88679 33048 ft 542 kts 121°
2026-05-07 18:23 38.38381 -101.80237 33048 ft 542 kts 121°
2026-05-07 18:24 38.34786 -101.71773 33037 ft 542 kts 121°
2026-05-07 18:24 38.31190 -101.63325 33042 ft 542 kts 121°
2026-05-07 18:25 38.27585 -101.54885 33050 ft 543 kts 121°
2026-05-07 18:25 38.23976 -101.46457 33048 ft 543 kts 121°
2026-05-07 18:26 38.20355 -101.38024 33047 ft 543 kts 121°
2026-05-07 18:26 38.16756 -101.29663 33055 ft 543 kts 121°
2026-05-07 18:27 38.13122 -101.21242 33065 ft 543 kts 121°
2026-05-07 18:27 38.09483 -101.12831 33064 ft 544 kts 122°
2026-05-07 18:28 38.05834 -101.04419 33064 ft 544 kts 122°
2026-05-07 18:28 38.02176 -100.96013 33064 ft 544 kts 122°
2026-05-07 18:29 37.98509 -100.87604 33053 ft 545 kts 122°
2026-05-07 18:29 37.94837 -100.79202 33053 ft 546 kts 123°
2026-05-07 18:30 37.91250 -100.70707 33039 ft 549 kts 117°
2026-05-07 18:30 37.88342 -100.61739 33048 ft 551 kts 115°
2026-05-07 18:31 37.85506 -100.52734 33049 ft 551 kts 115°
2026-05-07 18:31 37.82631 -100.43743 33051 ft 551 kts 115°
2026-05-07 18:32 37.79750 -100.34848 33036 ft 550 kts 115°
2026-05-07 18:32 37.76838 -100.25915 33050 ft 549 kts 115°
2026-05-07 18:33 37.73923 -100.17001 33039 ft 548 kts 115°
2026-05-07 18:33 37.71008 -100.08098 33037 ft 548 kts 115°
2026-05-07 18:34 37.68089 -99.99205 33049 ft 547 kts 116°
2026-05-07 18:34 37.65162 -99.90322 33039 ft 548 kts 116°
2026-05-07 18:35 37.62231 -99.81450 33049 ft 548 kts 116°
2026-05-07 18:35 37.59290 -99.72578 33048 ft 549 kts 116°
2026-05-07 18:36 37.56331 -99.63678 33042 ft 551 kts 116°
2026-05-07 18:36 37.53358 -99.54764 33040 ft 552 kts 116°
2026-05-07 18:37 37.50370 -99.45833 33052 ft 554 kts 116°
2026-05-07 18:37 37.47368 -99.36881 33058 ft 556 kts 117°
2026-05-07 18:38 37.44350 -99.27921 33055 ft 557 kts 117°
2026-05-07 18:38 37.41322 -99.18943 33058 ft 558 kts 117°
2026-05-07 18:39 37.38276 -99.09945 33054 ft 559 kts 117°
2026-05-07 18:39 37.35241 -99.01008 33051 ft 560 kts 117°
2026-05-07 18:40 37.32173 -98.92000 33053 ft 561 kts 117°
2026-05-07 18:40 37.29095 -98.82995 33055 ft 561 kts 118°
2026-05-07 18:41 37.26010 -98.73996 33058 ft 561 kts 118°
2026-05-07 18:41 37.22917 -98.65000 33055 ft 561 kts 118°
2026-05-07 18:42 37.19817 -98.56009 33054 ft 562 kts 118°
2026-05-07 18:42 37.16711 -98.47026 33059 ft 562 kts 118°
2026-05-07 18:43 37.13592 -98.38036 33051 ft 562 kts 118°
2026-05-07 18:43 37.10464 -98.29050 33053 ft 563 kts 118°
2026-05-07 18:44 37.07324 -98.20052 33062 ft 563 kts 118°
2026-05-07 18:44 37.04181 -98.11070 33065 ft 564 kts 118°
2026-05-07 18:45 37.01554 -98.03586 33066 ft 565 kts 119°
2026-05-07 18:45 36.98388 -97.94588 33057 ft 566 kts 119°
2026-05-07 18:46 36.95204 -97.85569 33065 ft 567 kts 119°
2026-05-07 18:46 36.92006 -97.76535 33069 ft 569 kts 120°
2026-05-07 18:47 36.88790 -97.67479 33074 ft 571 kts 120°
2026-05-07 18:47 36.85562 -97.58414 33075 ft 572 kts 120°
2026-05-07 18:48 36.82317 -97.49331 33076 ft 573 kts 120°
2026-05-07 18:48 36.79064 -97.40255 33074 ft 573 kts 120°
2026-05-07 18:49 36.75803 -97.31175 33074 ft 574 kts 120°
2026-05-07 18:49 36.72532 -97.22099 33075 ft 574 kts 120°
2026-05-07 18:50 36.69257 -97.13040 33088 ft 574 kts 120°
2026-05-07 18:50 36.65971 -97.03974 33100 ft 574 kts 120°
2026-05-07 18:51 36.62700 -96.94979 33101 ft 575 kts 121°
2026-05-07 18:51 36.59372 -96.85856 33107 ft 575 kts 121°
2026-05-07 18:52 36.56057 -96.76793 33114 ft 576 kts 121°
2026-05-07 18:52 36.52757 -96.67789 33113 ft 577 kts 121°
2026-05-07 18:53 36.49414 -96.58705 33109 ft 577 kts 121°
2026-05-07 18:53 36.46060 -96.49624 33111 ft 579 kts 121°
2026-05-07 18:54 36.42698 -96.40538 33110 ft 580 kts 122°
2026-05-07 18:54 36.39322 -96.31441 33122 ft 581 kts 122°
2026-05-07 18:55 36.35932 -96.22326 33125 ft 581 kts 122°
2026-05-07 18:55 36.32535 -96.13223 33116 ft 582 kts 122°
2026-05-07 18:56 36.29127 -96.04119 33121 ft 582 kts 122°
2026-05-07 18:56 36.25707 -95.95009 33119 ft 583 kts 122°
2026-05-07 18:57 36.22281 -95.85903 33119 ft 583 kts 122°
2026-05-07 18:57 36.18646 -95.76968 33123 ft 576 kts 129°
2026-05-07 18:58 36.14184 -95.68874 33124 ft 568 kts 134°
2026-05-07 18:58 36.09610 -95.60899 33119 ft 568 kts 134°
2026-05-07 18:59 36.05092 -95.52931 33121 ft 570 kts 134°